EW1845 Weather Reports


Display with metric or nautical units.
time (UTC)temp
F
wind
direction
speed
MPH
gust
MPH
rain 1hr
in
rain 24hr
in
rain mn
in
humidity
%
barometer
mb
20260507214506 72 255 4.0 9.0 0.00 0.00 0.00 62 1013.7
20260507214235 72 165 3.0 10.0 0.00 0.00 0.00 62 1013.7
20260507213209 73 222 2.0 9.0 0.00 0.00 0.00 61 1013.8
20260507213102 72 175 3.0 10.0 0.00 0.00 0.00 62 1013.9
20260507212227 72 205 4.0 8.0 0.00 0.00 0.00 62 1013.8
20260507211503 73 241 4.0 8.0 0.00 0.00 0.00 62 1014.0
20260507211157 73 262 3.0 8.0 0.00 0.00 0.00 62 1014.0
20260507210216 73 247 3.0 9.0 0.00 0.00 0.00 61 1014.0
20260507210002 72 197 2.0 10.0 0.00 0.00 0.00 62 1014.1
20260507205238 72 252 4.0 9.0 0.00 0.00 0.00 61 1014.1
20260507204603 72 248 4.0 10.0 0.00 0.00 0.00 61 1014.3
20260507203111 73 221 3.0 8.0 0.00 0.00 0.00 63 1014.3
20260507203004 72 134 4.0 8.0 0.00 0.00 0.00 62 1014.3
20260507202055 73 174 3.0 8.0 0.00 0.00 0.00 62 1014.4
20260507201603 72 141 2.0 9.0 0.00 0.00 0.00 64 1014.5
20260507201040 72 254 3.0 10.0 0.00 0.00 0.00 63 1014.5
20260507200107 71 225 1.0 10.0 0.00 0.00 0.00 65 1014.6
20260507200036 72 179 4.0 10.0 0.00 0.00 0.00 63 1014.6
20260507195038 73 275 3.0 9.0 0.00 0.00 0.00 62 1014.6
20260507194503 72 210 2.0 10.0 0.00 0.00 0.00 63 1014.8
20260507194046 72 201 3.0 9.0 0.00 0.00 0.00 62 1014.8
20260507193103 71 153 3.0 8.0 0.00 0.00 0.00 64 1014.9
20260507193048 72 234 3.0 9.0 0.00 0.00 0.00 64 1014.9
20260507191502 72 176 4.0 9.0 0.00 0.00 0.00 63 1015.1
20260507190004 71 245 4.0 7.0 0.00 0.00 0.00 64 1015.2
20260507185819 71 200 2.0 7.0 0.00 0.00 0.00 65 1015.1
20260507184818 71 226 2.0 7.0 0.00 0.00 0.00 63 1015.2
20260507184603 71 232 2.0 6.0 0.00 0.00 0.00 64 1015.3
20260507183809 71 193 2.0 8.0 0.00 0.00 0.00 65 1015.3
20260507182820 71 163 2.0 8.0 0.00 0.00 0.00 65 1015.4
20260507181748 71 140 3.0 6.0 0.00 0.00 0.00 65 1015.4
20260507181602 70 144 3.0 7.0 0.00 0.00 0.00 65 1015.5
20260507180750 70 233 2.0 6.0 0.00 0.00 0.00 64 1015.4
20260507180109 70 238 3.0 7.0 0.00 0.00 0.00 63 1015.5
20260507174550 69 240 2.0 5.0 0.00 0.00 0.00 66 1015.5
20260507174506 68 248 1.0 5.0 0.00 0.00 0.00 68 1015.5
20260507173602 68 187 2.0 5.0 0.00 0.00 0.00 68 1015.6
20260507173106 67 203 3.0 7.0 0.00 0.00 0.00 68 1015.6
20260507172531 68 243 2.0 6.0 0.00 0.00 0.00 68 1015.6
20260507171527 67 278 2.0 6.0 0.00 0.00 0.00 69 1015.7
20260507171503 67 124 2.0 7.0 0.00 0.00 0.00 69 1015.7
20260507170506 67 207 2.0 6.0 0.00 0.00 0.00 71 1015.6
20260507170003 66 229 3.0 6.0 0.00 0.00 0.00 71 1015.6
20260507164603 66 182 2.0 4.0 0.00 0.00 0.00 72 1015.7
20260507163204 65 210 2.0 5.0 0.00 0.00 0.00 73 1015.8
20260507163003 64 248 2.0 5.0 0.00 0.00 0.00 73 1015.8
20260507162147 64 221 2.0 5.0 0.00 0.00 0.00 75 1015.8
20260507161603 64 190 2.0 6.0 0.00 0.00 0.00 76 1015.8
20260507161145 64 204 1.0 4.0 0.00 0.00 0.00 75 1015.8
20260507160136 63 219 2.0 5.0 0.00 0.00 0.00 78 1015.8
20260507160119 63 212 1.0 5.0 0.00 0.00 0.00 77 1015.9
20260507155150 63 241 1.0 5.0 0.00 0.00 0.00 78 1015.9
20260507153103 61 210 2.0 4.0 0.00 0.00 0.00 81 1016.0
20260507151846 60 239 0.0 2.0 0.00 0.00 0.00 83 1015.9
20260507151502 60 200 0.0 3.0 0.00 0.00 0.00 83 1016.0
20260507150909 60 219 0.0 1.0 0.00 0.00 0.00 84 1016.0
20260507150004 59 161 0.0 2.0 0.00 0.00 0.00 85 1016.0
20260507145903 59 160 0.0 1.0 0.00 0.00 0.00 85 1015.9
20260507144847 59 207 0.0 0.0 0.00 0.00 0.00 86 1015.9
20260507144602 58 207 0.0 2.0 0.00 0.00 0.00 86 1016.0
20260507143850 58 354 0.0 1.0 0.00 0.00 0.00 86 1015.8
20260507142843 57 359 0.0 0.0 0.00 0.00 0.00 87 1015.8
20260507141852 57 359 0.0 0.0 0.00 0.00 0.00 88 1015.7
20260507141633 56 359 0.0 1.0 0.00 0.00 0.00 89 1015.7
20260507140912 55 347 0.0 0.0 0.00 0.00 0.00 90 1015.7
20260507140115 54 346 0.0 0.0 0.00 0.00 0.00 90 1015.7
20260507135838 55 346 0.0 0.0 0.00 0.00 0.00 90 1015.7
20260507134827 54 346 0.0 0.0 0.00 0.00 0.00 90 1015.6
20260507134502 54 346 0.0 1.0 0.00 0.00 0.00 90 1015.6
20260507133815 54 346 0.0 0.0 0.00 0.00 0.00 89 1015.4
20260507133107 54 346 0.0 1.0 0.00 0.00 0.00 90 1015.3
20260507132838 54 346 0.0 0.0 0.00 0.00 0.00 90 1015.3
20260507131900 54 346 0.0 0.0 0.00 0.00 0.00 88 1015.3
20260507131503 54 346 0.0 1.0 0.00 0.00 0.00 88 1015.3
20260507130844 54 347 0.0 0.0 0.00 0.00 0.00 89 1015.3
20260507130109 54 347 0.0 1.0 0.00 0.00 0.00 88 1015.2
20260507125841 55 346 0.0 0.0 0.00 0.00 0.00 89 1015.2
20260507124850 55 346 0.0 0.0 0.00 0.00 0.00 89 1015.2
20260507124504 54 347 0.0 1.0 0.00 0.00 0.00 88 1015.2
20260507123909 55 347 0.0 0.0 0.00 0.00 0.00 88 1015.1
20260507123106 54 346 0.0 1.0 0.00 0.00 0.00 90 1015.1
20260507122842 54 346 0.0 0.0 0.00 0.00 0.00 90 1015.0
20260507121813 54 348 0.0 0.0 0.00 0.00 0.00 90 1015.0
20260507121503 53 348 1.0 1.0 0.00 0.00 0.00 89 1015.1
20260507120004 53 348 0.0 1.0 0.00 0.00 0.00 90 1015.2
20260507114602 54 348 0.0 1.0 0.00 0.00 0.00 89 1015.2
20260507113436 55 347 0.0 0.0 0.00 0.00 0.00 88 1015.2
20260507113002 54 347 0.0 1.0 0.00 0.00 0.00 88 1015.3
20260507112407 55 347 0.0 0.0 0.00 0.00 0.00 89 1015.3
20260507111407 54 348 0.0 0.0 0.00 0.00 0.00 89 1015.3
20260507110401 55 347 0.0 0.0 0.00 0.00 0.00 90 1015.3
20260507110003 54 347 0.0 1.0 0.00 0.00 0.00 91 1015.3
20260507105356 54 347 0.0 0.0 0.00 0.00 0.00 91 1015.4
20260507104330 54 357 0.0 0.0 0.00 0.00 0.00 90 1015.5
20260507103316 55 356 0.0 0.0 0.00 0.00 0.00 90 1015.6
20260507103002 54 356 0.0 1.0 0.00 0.00 0.00 89 1015.7
20260507102253 54 356 0.0 0.0 0.00 0.00 0.00 89 1015.7
20260507101603 54 357 0.0 1.0 0.00 0.00 0.00 88 1015.7
20260507101229 55 356 0.0 0.0 0.00 0.00 0.00 89 1015.7
20260507095129 55 357 0.0 0.0 0.00 0.00 0.00 88 1015.7
20260507094503 54 357 0.0 1.0 0.00 0.00 0.00 87 1015.7
20260507094118 55 357 0.0 0.0 0.00 0.00 0.00 86 1015.7
20260507093102 54 356 0.0 1.0 0.00 0.00 0.00 89 1015.7
20260507093045 55 356 0.0 0.0 0.00 0.00 0.00 89 1015.7
20260507091503 54 356 0.0 1.0 0.00 0.00 0.00 90 1016.0
20260507090006 54 357 0.0 1.0 0.00 0.00 0.00 89 1016.2
20260507085852 54 357 0.0 0.0 0.00 0.00 0.00 89 1016.1
20260507084916 55 357 0.0 0.0 0.00 0.00 0.00 89 1016.1
20260507084604 54 357 0.0 1.0 0.00 0.00 0.00 90 1016.3
20260507083921 54 357 0.0 0.0 0.00 0.00 0.00 89 1016.3
20260507083010 54 357 0.0 1.0 0.00 0.00 0.00 89 1016.4
20260507082919 54 357 0.0 0.0 0.00 0.00 0.00 89 1016.3
20260507081907 55 357 0.0 0.0 0.00 0.00 0.00 88 1016.5
20260507081603 55 356 0.0 1.0 0.00 0.00 0.00 89 1016.5
20260507080835 55 358 0.0 0.0 0.00 0.00 0.00 91 1016.5
20260507075801 54 359 0.0 0.0 0.00 0.00 0.00 91 1016.4
20260507074810 54 233 0.0 0.0 0.00 0.00 0.00 91 1016.5
20260507074503 54 233 0.0 1.0 0.00 0.00 0.00 91 1016.6
20260507073824 54 233 0.0 0.0 0.00 0.00 0.00 91 1016.5
20260507073110 54 233 0.0 1.0 0.00 0.00 0.00 91 1016.6
20260507072757 54 233 0.0 0.0 0.00 0.00 0.00 91 1016.5
20260507071757 55 233 0.0 0.0 0.00 0.00 0.00 90 1016.5
20260507071507 55 233 0.0 1.0 0.00 0.00 0.00 91 1016.7
20260507070728 55 233 0.0 0.0 0.00 0.00 0.00 90 1016.6
20260507070012 54 233 0.0 1.0 0.00 0.00 0.00 90 1016.7
20260507065736 54 233 0.0 0.0 0.00 0.00 0.00 90 1016.6
20260507064719 54 233 0.0 0.0 0.00 0.00 0.00 89 1016.7
20260507064606 54 233 0.0 1.0 0.00 0.00 0.00 89 1016.8
20260507063723 55 233 0.0 0.0 0.00 0.00 0.00 90 1016.7
20260507063002 54 233 0.0 1.0 0.00 0.00 0.00 88 1016.8
20260507062703 55 233 0.0 0.0 0.00 0.00 0.00 89 1016.7
20260507061653 55 233 0.0 0.0 0.00 0.00 0.00 88 1016.6
20260507061604 54 233 0.0 0.0 0.00 0.00 0.00 88 1016.7
20260507055457 55 233 0.0 0.0 0.00 0.00 0.00 87 1016.7
20260507054507 55 233 0.0 0.0 0.00 0.00 0.00 86 1016.7
20260507054503 55 233 0.0 1.0 0.00 0.00 0.00 86 1016.8
20260507053432 55 233 0.0 0.0 0.00 0.00 0.00 85 1016.7
20260507053104 55 233 0.0 1.0 0.00 0.00 0.00 85 1016.8
20260507052418 56 233 0.0 0.0 0.00 0.00 0.00 85 1016.7
20260507051503 55 233 0.0 1.0 0.00 0.00 0.00 85 1016.7
20260507051413 56 233 0.0 0.0 0.00 0.00 0.00 85 1016.7
20260507050429 56 232 0.0 0.0 0.00 0.00 0.00 84 1016.7
20260507050007 55 232 0.0 1.0 0.00 0.00 0.00 83 1016.6
20260507045437 56 233 0.0 0.0 0.00 0.00 0.00 83 1016.6
20260507044602 55 232 0.0 1.0 0.00 0.00 0.00 82 1016.7
20260507044434 56 232 0.0 0.0 0.00 0.00 0.00 82 1016.6
20260507043424 56 232 0.0 0.0 0.00 0.00 0.00 81 1016.5
20260507043002 56 232 0.0 1.0 0.00 0.00 0.00 82 1016.5
20260507042414 57 233 0.0 0.0 0.00 0.00 0.00 81 1016.4
20260507041602 56 232 0.0 0.0 0.00 0.00 0.00 80 1016.5
20260507041342 57 232 0.0 0.0 0.00 0.00 0.00 80 1016.4
20260507040402 57 232 0.0 0.0 0.00 0.00 0.00 80 1016.4
20260507040111 57 232 0.0 0.0 0.00 0.00 0.00 79 1016.5
20260507035356 58 232 0.0 0.0 0.00 0.00 0.00 79 1016.3
20260507034505 57 232 0.0 1.0 0.00 0.00 0.00 79 1016.3
20260507033103 58 232 0.0 0.0 0.00 0.00 0.00 78 1016.0
20260507032039 59 232 0.0 0.0 0.00 0.00 0.00 77 1015.9
20260507031011 59 232 0.0 0.0 0.00 0.00 0.00 77 1015.8
20260507025954 60 232 0.0 0.0 0.00 0.00 0.00 76 1015.7
20260507024959 60 232 0.0 0.0 0.00 0.00 0.00 76 1015.7
20260507024503 60 232 0.0 0.0 0.00 0.00 0.00 75 1015.7
20260507024017 61 232 0.0 0.0 0.00 0.00 0.00 75 1015.6
20260507023004 61 232 0.0 0.0 0.00 0.00 0.00 75 1015.5
20260507021929 61 220 0.0 1.0 0.00 0.00 0.00 74 1015.5
20260507021618 61 222 0.0 2.0 0.00 0.00 0.00 74 1015.5
20260507020907 62 236 0.0 0.0 0.00 0.00 0.00 73 1015.4
20260507015914 62 150 0.0 3.0 0.00 0.00 0.00 72 1015.4
20260507014906 63 210 0.0 1.0 0.00 0.00 0.00 70 1015.3
20260507014503 62 240 0.0 2.0 0.00 0.00 0.00 70 1015.3
20260507013843 63 196 1.0 4.0 0.00 0.00 0.00 70 1015.2
20260507013102 63 151 1.0 5.0 0.00 0.00 0.00 68 1015.2
20260507012827 63 169 1.0 4.0 0.00 0.00 0.00 68 1015.2
20260507011836 64 205 1.0 5.0 0.00 0.00 0.00 68 1015.2
20260507011506 63 215 2.0 7.0 0.00 0.00 0.00 68 1015.2
20260507010839 64 275 1.0 6.0 0.00 0.00 0.00 67 1015.0
20260507010002 64 133 3.0 7.0 0.00 0.00 0.00 66 1015.0
20260507005843 65 186 1.0 9.0 0.00 0.00 0.00 66 1015.0
20260507004831 65 165 3.0 9.0 0.00 0.00 0.00 66 1015.1
20260507004602 64 255 4.0 10.0 0.00 0.00 0.00 65 1015.1
20260507003850 65 160 1.0 6.0 0.00 0.00 0.00 66 1015.0
20260507003002 65 206 0.0 5.0 0.00 0.00 0.00 67 1015.1
20260507002842 65 235 2.0 7.0 0.00 0.00 0.00 66 1015.1
20260507001608 65 240 3.0 7.0 0.00 0.00 0.00 64 1015.2
20260507000711 66 134 2.0 8.0 0.00 0.00 0.00 63 1015.0
20260506235714 67 259 1.0 7.0 0.00 0.00 0.00 62 1015.1
20260506234735 66 207 3.0 10.0 0.00 0.00 0.00 62 1015.1
20260506234627 66 219 4.0 8.0 0.00 0.00 0.00 62 1015.1
20260506233733 66 214 4.0 10.0 0.00 0.00 0.00 63 1015.0
20260506233003 66 221 4.0 10.0 0.00 0.00 0.00 63 1015.1
20260506232750 67 257 3.0 10.0 0.00 0.00 0.00 63 1015.2
20260506231735 68 195 3.0 10.0 0.00 0.00 0.00 61 1015.1
20260506231602 67 200 5.0 11.0 0.00 0.00 0.00 61 1015.2
20260506230754 68 200 3.0 8.0 0.00 0.00 0.00 61 1015.1
20260506225744 68 238 4.0 12.0 0.00 0.00 0.00 60 1015.2
20260506224805 68 223 4.0 12.0 0.00 0.00 0.00 60 1015.3
20260506224504 68 195 6.0 13.0 0.00 0.00 0.00 59 1015.4
20260506223804 69 238 4.0 9.0 0.00 0.00 0.00 58 1015.4
20260506223103 69 207 4.0 9.0 0.00 0.00 0.00 57 1015.5
20260506222825 70 239 3.0 8.0 0.00 0.00 0.00 58 1015.5
20260506221843 69 157 4.0 11.0 0.00 0.00 0.00 59 1015.7
20260506221504 69 221 5.0 11.0 0.00 0.00 0.00 58 1015.8
20260506220813 69 231 5.0 11.0 0.00 0.00 0.00 59 1015.7
20260506220003 69 176 4.0 10.0 0.00 0.00 0.00 57 1016.0
20260506215818 70 214 4.0 8.0 0.00 0.00 0.00 57 1015.9